Regional Weather Roundup
Issued by NWS

Home | Current Version | Previous Version | Text Only | Print | Product List | Glossary On
Versions: 1 2 3 4 5 6 7 8 9 10 11 12 13 14 15 16 17 18 19 20 21 22 23 24 25 26 27 28 29 30 31 32 33 34 35 36 37 38 39 40 41 42 43 44 45 46 47 48 49 50
000
ASHW40 PHFO 180843
RWRHI

WEATHER ROUNDUP FOR HAWAII
NATIONAL WEATHER SERVICE HONOLULU HI
1000 PM HST WED SEP 17 2014

THIS IS AN AUTOMATED REPORT THAT HAS NOT BEEN QUALITY CONTROLLED.

NOTE..."FAIR" INDICATES FEW OR NO CLOUDS BELOW 12,000 FEET WITH NO
SIGNIFICANT WEATHER AND/OR OBSTRUCTIONS TO VISIBILITY.

* - THESE SITES REPORT LIMITED FIELDS

HIZ001>004-180900-
KAUAI-NIIHAU-

CITY           SKY/WX    TMP DP  RH WIND       PRES   REMARKS
LIHUE APT      MOCLDY    79  72  78 NE8       29.99S
PORT ALLEN*      N/A     79 N/A N/A E12G17      N/A
POIPU*           N/A     79 N/A N/A N3G9        N/A
PRINCEVILLE*   NOT AVBL
KOKOLE POINT*  NOT AVBL
MOLOAA DAIRY*  NOT AVBL
WAIMEA HTS*      N/A     75  68  78 VRB1        N/A
PUU OPAE*        N/A     70  66  88 CALM        N/A
PUU LUA*       NOT AVBL
MAKAHA RIDGE*  NOT AVBL
$$

HIZ005>011-180900-
OAHU-

CITY           SKY/WX    TMP DP  RH WIND       PRES   REMARKS
HONOLULU       PTCLDY    81  69  67 E7        29.97S
KALAELOA       PTCLDY    78  70  76 CALM      29.99R
KANEOHE MCB    MOCLDY    77  72  84 CALM      29.98S
WHEELER FIELD  LGT RAIN  72  70  94 NW3       30.00S
BELLOWS*         N/A    N/A N/A N/A E10         N/A
KAHUKU*          N/A    N/A N/A N/A E1          N/A
WHEELER*       NOT AVBL
WAIANAE HARBOR NOT AVBL
DILLINGHAM*      N/A     75  72  88 SE2G8       N/A
KAHUKU TRN*      N/A     73  72  94 SE3         N/A
KAWAILOA*      NOT AVBL
KII*             N/A     79  73  83 E8          N/A
MAKUA RANGE*     N/A     79  70  73 E8          N/A
OAHU FOREST NW   N/A     70  70 100 N12G20      N/A
SCHOFIELD BRK*   N/A     72  70  94 MISG        N/A
SCHOFIELD S*   NOT AVBL
WAIANAE VLY*     N/A     73  68  83 NE3G10      N/A
KUAOKALA*        N/A     75  66  73 CALM        N/A
HONOULIUULI*   NOT AVBL
MOKUOLOE IS*     N/A    N/A N/A N/A MISG        N/A
PALEHUA*         N/A     82  73  74 CALM        N/A
WAIAWA PHB*    NOT AVBL
$$

HIZ012>013-180900-
MOLOKAI-

CITY           SKY/WX    TMP DP  RH WIND       PRES   REMARKS
MOLOKAI AIRPT  CLOUDY    78  73  84 N7        29.99S
KALAUPAPA      NOT AVBL
MAKAPULAPAI*     N/A     77  70  78 SE3G10      N/A
MOLOKAI 1*       N/A     70  64  83 S2G8        N/A
PUU ALII*        N/A     62  61  97 E2          N/A
$$

HIZ016-180900-
KAHOOLAWE-

CITY           SKY/WX    TMP DP  RH WIND       PRES   REMARKS
KAHOOLAWE*       N/A     73 N/A N/A E14G21      N/A
HAKIOAWA*      NOT AVBL
HONOKANAIA*      N/A     81  73  76 E10G18    29.99R
KANELOA*         N/A     79  72  78 E10G17    29.21R
KEALIALALO*    NOT AVBL
LUA MAKIKA*    NOT AVBL
$$

HIZ014>015-180900-
LANAI-

CITY           SKY/WX    TMP DP  RH WIND       PRES   REMARKS
LANAI CITY     FAIR      73  69  87 E7        30.04R
LANAI 1*         N/A     73  73 100 NE13G21     N/A
$$

HIZ017>028-180900-
MAUI-

CITY           SKY/WX    TMP DP  RH WIND       PRES   REMARKS
KAHULUI        PTCLDY    78  69  73 E5        29.98R
KAPALUA-W MAUI NOT AVBL
HANA AIRPORT   PTCLDY    73  70  88 CALM      30.01S
HANA*            N/A     75 N/A N/A S2          N/A
HALEAKALA SUMM   N/A     48  25  40 E16         N/A
MAALAEA BAY*   NOT AVBL
HALEAKALA*     NOT AVBL
KAUPO GAP*     NOT AVBL
KULA 1*          N/A     54  52  92 NE2         N/A
$$

HIZ023>026-180900-
BIG ISLAND OF HAWAII COAST AND LOWER SLOPES-

CITY           SKY/WX    TMP DP  RH WIND       PRES   REMARKS
KAILUA KONA    LGT RAIN  80  73  79 SE8       29.96R
HILO           CLEAR     75  69  81 SW5       29.98S
HONOKAA*       NOT AVBL
KAWAIHAE MWT*    N/A     82 N/A N/A VRB5        N/A
KAWAIHAE*        N/A     81 N/A N/A VRB3        N/A
SOUTH POINT*     N/A     72 N/A N/A NE7         N/A
UPOLU AIRPORT*   N/A    N/A N/A N/A SE7         N/A
KAMUELA*       SUNNY     63  57  82 E6        30.10S
HAKALAU*         N/A     46  46 100 W3          N/A
KALOKO-HONOKO*   N/A     79  73  83 NE3       29.95S
PALI 2*          N/A     66  63  88 NW8G15      N/A
KEALAKOMO*       N/A     81  68  65 N13G21      N/A
KAUPULEHU*       N/A     75  59  57 SE8         N/A
KAPAPALA*        N/A     66  65  95 NW2         N/A
LOWER KAHUKU*  NOT AVBL
PUHE CS*       NOT AVBL
PUHO CS*       NOT AVBL
PTA KEAMUKU*     N/A     63  57  82 S9          N/A
WAIKOLOA*        N/A     73  57  56 E10         N/A
$$

HIZ027>028-180900-
BIG ISLAND OF HAWAII INTERIOR AND SUMMMITS-

CITY           SKY/WX    TMP DP  RH WIND       PRES   REMARKS
BRADSHAW FIELD MOCLDY    57  55  94 W1        30.35S
MK VISITOR CEN NOT AVBL
MAUNA KEA*       N/A     41 -13   9 SE13        N/A
MAUNA LOA*       N/A    N/A N/A N/A MISG        N/A
MAUNA LOA 1*     N/A    N/A N/A N/A MISG        N/A
PTA KIPUKA*      N/A     61  57  88 E2          N/A
PTA RANGE 17*    N/A     57  55  94 CALM        N/A
PTA WEST*        N/A     57  55  94 SE8         N/A
NENE CABIN*    NOT AVBL
AHUMOA*          N/A     52  50  94 E5          N/A
PTA PORTABLE*  NOT AVBL
PUU MALI*      NOT AVBL
$$

HIC003-180900-
NORTHWEST ISLANDS-

CITY           SKY/WX    TMP DP  RH WIND       PRES   REMARKS
MIDWAY ISLAND  PTCLDY    82  75  78 E10       30.10R
MIDWAY NOS*    NOT AVBL
FRENCH FRIGATE NOT AVBL
$$

PHZ110>124-180-180900-
BUOY REPORTS

STATION/POSITION TIME  TEMP    WIND        PRES    WAVE   SWELL
                       AIR SEA DIR/SP/G            HT/PER HT/DIR
                 (UTC) (F)     (DEG/KT/KT) (MB)    (FT/S) (FT/D)
BUOY 51001       NOT AVBL
BUOY 51101       NOT AVBL
BUOY 51100       0800   79 81   90/ 10/ 14 1015.2R
BUOY 51003       0800   82 83   80/  8/ 10 1015.0R   5/10   5
BUOY 51004       0742   80 81   80/ 10/ 12 1014.2S   6/12   5/ 20
BARBERS PT BUOY  NOT AVBL
WAIMEA BAY BUOY  0800      82                N/A     5/ 9
KAILUA BAY BUOY  0800      83                N/A     6/12   3/360
LANAI BUOY       NOT AVBL
BARBERS PT 2     0800      83                N/A     4/14   3/190
PAUWELA MAUI     0800      81                N/A     5/10   3/350
HILO             0800      82                N/A     5/11   3
KANEOHE BAY BUOY NOT AVBL
HANALEI KAUAI    NOT AVBL
KAHULUI HARBOR   0800   79 84  100/  2/  6 1015.0R
HONOLULU HARBOR  0800   81      CALM  /  1 1015.3S
KILO NALU        NOT AVBL
HILO HARBOR      0800   75     220/  4/  5 1015.0R
MOKUOLOE         0800      86              1015.5R
NAWILIWILI       0800      85                N/A
WHOTS BUOY       NOT AVBL
BUOY 51028       NOT AVBL
$$

......................KEY........................................
  SKY/WX - SKY CONDITIONS/PRESENT WEATHER
  TMP    - TEMPERATURE IN FAHRENHEIT
  DWPT   - DEWPOINT IN FAHRENHEIT
  RH     - RELATIVE HUMIDITY IN PERCENT
  WIND   - DIRECTION AND SPEED /MPH FOR ISLANDS...KTS FOR BUOYS/
  PRES   - MEAN SEA LEVEL PRESSURE IN INCHES OF HG
  VSB    - VISIBILITY IN MILES
  HX     - HEAT INDEX
  WCI    - WIND CHILL INDEX
  VRB    - VARIABLE WIND DIRECTION
  N/A    - NOT AVAILABLE



USA.gov is the U.S. government's official web portal to all federal, state and local government web resources and services.